Location: Blangy-Tronville
(49.8790°N, 2.4226°E)
Time: 23:30:01
(UTC+00:00)

Cosmos 1536 Rocket - Pass Details

Date: 18 November 2025
Orbit: 599 x 625 km, 82.5° (Epoch: 04 December)

Event Time Altitude Azimuth Distance (km) Brightness Sun altitude
Rises 17:05:09 0° 357° (N) 2,919 6.9 -10.0°
Reaches altitude 10° 17:07:38 10° 9° (N) 2,005 5.9 -10.4°
Maximum altitude 17:11:33 30° 70° (ENE) 1,124 4.3 -11.0°
Drops below altitude 10° 17:15:25 10° 132° (SE) 1,979 5.8 -11.6°
Sets 17:17:51 0° 144° (SE) 2,875 6.8 -11.9°
